| time (UTC) | temp C | wind direction | speed KPH | gust KPH | rain 1hr cm | rain 24hr cm | rain mn cm | humidity % | barometer mb |
| 20260502163012 | 27 | 0.0 | 0.0 | 0.00 | 0.00 | 0.00 | 31 | 1017.5 | |
| 20260502161512 | 27 | 0.0 | 0.0 | 0.00 | 0.00 | 0.00 | 32 | 1017.7 | |
| 20260502151512 | 26 | 0.0 | 0.0 | 0.00 | 0.00 | 0.00 | 33 | 1018.4 | |
| 20260502123013 | 23 | 0.0 | 0.0 | 0.00 | 0.00 | 0.00 | 33 | 1020.6 | |
| 20260502121512 | 23 | 0.0 | 0.0 | 0.00 | 0.00 | 0.00 | 35 | 1020.7 | |
| 20260502114512 | 22 | 0.0 | 0.0 | 0.00 | 0.00 | 0.00 | 38 | 1021.3 | |
| 20260502113013 | 22 | 0.0 | 0.0 | 0.00 | 0.00 | 0.00 | 43 | 1021.5 | |
| 20260502111512 | 21 | 0.0 | 0.0 | 0.00 | 0.00 | 0.00 | 46 | 1021.8 | |
| 20260502110012 | 21 | 0.0 | 0.0 | 0.00 | 0.00 | 0.00 | 46 | 1021.9 | |
| 20260502104512 | 21 | 0.0 | 0.0 | 0.00 | 0.00 | 0.00 | 49 | 1022.2 | |
| 20260502103012 | 21 | 0.0 | 0.0 | 0.00 | 0.00 | 0.00 | 48 | 1022.3 | |
| 20260502101513 | 20 | 0.0 | 0.0 | 0.00 | 0.00 | 0.00 | 53 | 1022.7 | |
| 20260502091512 | 18 | 0.0 | 0.0 | 0.00 | 0.00 | 0.00 | 45 | 1023.3 | |
| 20260502071512 | 27 | 0.0 | 0.0 | 0.00 | 0.00 | 0.00 | 29 | 1023.3 | |
| 20260502070012 | 28 | 0.0 | 0.0 | 0.00 | 0.00 | 0.00 | 32 | 1023.3 | |
| 20260502064512 | 26 | 0.0 | 0.0 | 0.00 | 0.00 | 0.00 | 35 | 1023.3 | |
| 20260502063012 | 23 | 0.0 | 0.0 | 0.00 | 0.00 | 0.00 | 43 | 1023.5 | |
| 20260502061512 | 19 | 0.0 | 0.0 | 0.00 | 0.00 | 0.00 | 50 | 1023.5 | |
| 20260502060012 | 20 | 0.0 | 0.0 | 0.00 | 0.00 | 0.00 | 52 | 1023.5 | |
| 20260502054512 | 16 | 0.0 | 0.0 | 0.00 | 0.00 | 0.00 | 63 | 1023.7 | |
| 20260502053012 | 16 | 0.0 | 0.0 | 0.00 | 0.00 | 0.00 | 58 | 1023.6 | |
| 20260502051512 | 16 | 0.0 | 0.0 | 0.00 | 0.00 | 0.00 | 69 | 1023.6 | |
| 20260502050012 | 12 | 0.0 | 0.0 | 0.00 | 0.00 | 0.00 | 99 | 1023.6 | |
| 20260502044512 | 8 | 0.0 | 0.0 | 0.00 | 0.00 | 0.00 | 99 | 1024.0 | |
| 20260502043012 | 5 | 0.0 | 0.0 | 0.00 | 0.00 | 0.00 | 99 | 1024.3 | |
| 20260502041511 | 5 | 0.0 | 0.0 | 0.00 | 0.00 | 0.00 | 99 | 1024.4 | |
| 20260502040012 | 5 | 0.0 | 0.0 | 0.00 | 0.00 | 0.00 | 99 | 1024.3 | |
| 20260502034512 | 5 | 0.0 | 0.0 | 0.00 | 0.00 | 0.00 | 99 | 1024.1 | |
| 20260502033012 | 5 | 0.0 | 0.0 | 0.00 | 0.00 | 0.00 | 99 | 1024.1 | |
| 20260502031512 | 5 | 0.0 | 0.0 | 0.00 | 0.00 | 0.00 | 99 | 1024.0 | |
| 20260502030012 | 5 | 0.0 | 0.0 | 0.00 | 0.00 | 0.00 | 99 | 1024.0 | |
| 20260502024512 | 5 | 0.0 | 0.0 | 0.00 | 0.00 | 0.00 | 99 | 1023.9 | |
| 20260502023012 | 5 | 0.0 | 0.0 | 0.00 | 0.00 | 0.00 | 99 | 1023.9 | |
| 20260502021511 | 6 | 0.0 | 0.0 | 0.00 | 0.00 | 0.00 | 99 | 1023.9 | |
| 20260502020013 | 6 | 0.0 | 0.0 | 0.00 | 0.00 | 0.00 | 99 | 1023.9 | |
| 20260502014512 | 6 | 0.0 | 0.0 | 0.00 | 0.00 | 0.00 | 99 | 1023.9 | |
| 20260502013012 | 6 | 0.0 | 0.0 | 0.00 | 0.00 | 0.00 | 99 | 1023.9 | |
| 20260502011512 | 6 | 0.0 | 0.0 | 0.00 | 0.00 | 0.00 | 99 | 1023.9 | |
| 20260502010013 | 7 | 0.0 | 0.0 | 0.00 | 0.00 | 0.00 | 99 | 1023.9 | |
| 20260502004512 | 7 | 0.0 | 0.0 | 0.00 | 0.00 | 0.00 | 99 | 1024.0 | |
| 20260502003012 | 7 | 0.0 | 0.0 | 0.00 | 0.00 | 0.00 | 99 | 1024.0 | |
| 20260502001512 | 8 | 0.0 | 0.0 | 0.00 | 0.00 | 0.00 | 99 | 1024.0 | |
| 20260502000013 | 8 | 0.0 | 0.0 | 0.00 | 0.00 | 0.00 | 99 | 1024.1 | |
| 20260501234512 | 8 | 0.0 | 0.0 | 0.00 | 0.00 | 0.00 | 97 | 1024.2 | |
| 20260501233012 | 8 | 0.0 | 0.0 | 0.00 | 0.00 | 0.00 | 98 | 1024.1 | |
| 20260501231512 | 9 | 0.0 | 0.0 | 0.00 | 0.00 | 0.00 | 90 | 1024.2 | |
| 20260501230012 | 10 | 0.0 | 0.0 | 0.00 | 0.00 | 0.00 | 86 | 1024.3 | |
| 20260501224513 | 10 | 0.0 | 0.0 | 0.00 | 0.00 | 0.00 | 86 | 1024.2 | |
| 20260501223011 | 10 | 0.0 | 0.0 | 0.00 | 0.00 | 0.00 | 81 | 1024.2 | |
| 20260501221512 | 11 | 0.0 | 0.0 | 0.00 | 0.00 | 0.00 | 67 | 1024.2 | |
| 20260501220012 | 11 | 0.0 | 0.0 | 0.00 | 0.00 | 0.00 | 60 | 1024.1 | |
| 20260501214512 | 11 | 0.0 | 0.0 | 0.00 | 0.00 | 0.00 | 61 | 1024.1 | |
| 20260501213012 | 11 | 0.0 | 0.0 | 0.00 | 0.00 | 0.00 | 64 | 1024.2 | |
| 20260501211511 | 11 | 0.0 | 0.0 | 0.00 | 0.00 | 0.00 | 64 | 1024.2 | |
| 20260501210011 | 11 | 0.0 | 0.0 | 0.00 | 0.00 | 0.00 | 62 | 1024.1 | |
| 20260501204512 | 11 | 0.0 | 0.0 | 0.00 | 0.00 | 0.00 | 59 | 1024.2 | |
| 20260501203012 | 11 | 0.0 | 0.0 | 0.00 | 0.00 | 0.00 | 59 | 1024.2 | |
| 20260501201512 | 11 | 0.0 | 0.0 | 0.00 | 0.00 | 0.00 | 63 | 1024.2 | |
| 20260501200012 | 11 | 0.0 | 0.0 | 0.00 | 0.00 | 0.00 | 60 | 1024.2 | |
| 20260501194512 | 11 | 0.0 | 0.0 | 0.00 | 0.00 | 0.00 | 56 | 1024.0 | |
| 20260501193012 | 12 | 0.0 | 0.0 | 0.00 | 0.00 | 0.00 | 55 | 1023.8 | |
| 20260501191512 | 13 | 0.0 | 0.0 | 0.00 | 0.00 | 0.00 | 52 | 1023.7 | |
| 20260501190012 | 14 | 0.0 | 0.0 | 0.00 | 0.00 | 0.00 | 45 | 1023.6 | |
| 20260501184512 | 15 | 0.0 | 0.0 | 0.00 | 0.00 | 0.00 | 44 | 1023.5 | |
| 20260501183012 | 17 | 0.0 | 0.0 | 0.00 | 0.00 | 0.00 | 43 | 1023.4 | |
| 20260501181512 | 18 | 0.0 | 0.0 | 0.00 | 0.00 | 0.00 | 39 | 1023.2 | |
| 20260501180012 | 18 | 0.0 | 0.0 | 0.00 | 0.00 | 0.00 | 35 | 1023.1 | |
| 20260501174513 | 19 | 0.0 | 0.0 | 0.00 | 0.00 | 0.00 | 35 | 1023.1 | |
| 20260501173012 | 19 | 0.0 | 0.0 | 0.00 | 0.00 | 0.00 | 35 | 1023.1 | |
| 20260501171512 | 20 | 0.0 | 0.0 | 0.00 | 0.00 | 0.00 | 33 | 1023.0 | |
| 20260501170012 | 21 | 0.0 | 0.0 | 0.00 | 0.00 | 0.00 | 32 | 1023.0 | |
| 20260501164512 | 20 | 0.0 | 0.0 | 0.00 | 0.00 | 0.00 | 33 | 1023.1 |